Theta_e
317 318 318 318 318 317 317 317 317 316 317 318 321 322 320 321 325 324 319 316 315 313 311 310 309 309 309 308 308 308 308 307 307 306 306 305 305 305 305 306 307 308 308 308 308 308 308 308 309 311 311 312 314 315 318 321 323 326 327 327 328 328 329 329 329 328 327 327 327 326 326 323 321 325 326 322 322 324 323 321 320 321 321 321 321 321 320
318 317 316 316 316 315 315 315 315 315 314 315 316 318 318 317 317 316 314 313 312 310 309 308 308 308 308 308 307 307 307 307 306 305 304 304 304 304 305 306 307 308 308 308 308 308 308 308 308 309 310 311 312 314 315 317 320 322 325 326 327 327 328 328 328 328 328 329 328 327 326 324 322 324 325 323 324 325 323 320 319 321 321 320 321 321 320
318 316 315 315 314 314 314 314 314 314 313 313 314 315 316 315 314 312 311 311 310 308 308 307 307 307 307 307 307 306 306 305 305 304 303 303 302 302 303 305 306 308 308 309 309 309 308 309 308 309 309 310 311 312 314 315 317 318 320 322 324 326 327 328 327 327 327 328 328 327 326 325 323 325 325 324 325 325 322 320 320 321 321 320 321 322 321
317 315 314 313 313 314 314 314 313 313 313 313 312 312 313 314 314 313 312 312 309 307 307 306 305 305 306 306 306 306 305 304 303 302 302 302 302 301 301 302 304 306 307 308 309 309 308 308 308 309 309 310 311 312 313 314 315 316 317 319 321 323 325 326 326 326 326 327 327 327 327 326 325 325 325 324 325 323 321 320 321 321 321 320 320 321 321
317 315 315 315 317 319 317 314 313 313 312 311 311 310 311 312 312 313 313 311 308 306 306 305 305 305 304 305 305 304 304 303 303 302 302 302 301 301 301 301 302 303 305 306 307 307 308 308 308 309 309 310 310 311 312 313 313 315 316 317 318 320 322 323 325 326 325 325 326 327 327 326 326 326 325 324 324 322 320 320 320 320 320 320 320 320 321
319 315 316 318 320 320 315 312 312 311 310 310 310 310 310 310 310 310 309 308 306 305 305 304 304 304 304 303 303 303 303 303 302 302 302 302 301 301 300 299 300 301 303 304 305 305 306 307 308 308 309 309 310 311 312 312 313 313 314 315 317 318 319 321 324 325 325 324 326 326 327 326 326 326 325 324 322 321 320 320 319 320 320 320 320 320 319
319 316 317 319 318 315 312 310 310 309 308 308 308 308 308 309 309 308 307 306 305 304 304 304 304 303 303 302 302 302 302 302 302 302 301 301 301 300 300 299 299 300 301 302 303 303 304 305 306 307 307 308 309 310 311 312 312 312 313 314 315 316 317 319 322 324 324 324 324 326 326 326 325 325 325 324 321 319 319 319 319 320 320 320 320 319 319
318 317 318 317 315 312 311 310 309 309 309 309 309 309 307 307 308 308 307 306 305 304 304 303 303 302 302 302 301 301 301 301 301 301 301 301 301 300 300 300 300 300 300 301 301 301 301 302 304 305 305 306 307 308 310 311 311 311 312 312 313 313 314 315 318 320 322 323 324 325 325 325 325 324 324 323 320 318 319 319 319 320 320 320 320 319 319
315 316 315 314 313 312 311 310 309 309 310 309 310 309 307 306 307 308 307 305 304 304 304 303 302 302 302 301 301 300 301 301 301 301 301 301 301 301 301 301 301 301 301 301 301 300 300 300 301 302 303 304 305 307 307 308 309 310 311 311 311 311 312 312 313 315 318 320 322 322 322 323 325 324 322 321 319 318 318 319 319 319 320 319 319 319 319
312 313 313 313 314 314 311 309 308 307 308 308 309 309 307 306 306 306 307 306 305 305 304 303 304 303 302 301 301 300 300 301 301 301 301 301 301 301 301 301 301 301 301 301 302 302 302 301 301 301 301 302 303 304 305 306 307 308 308 309 309 310 310 311 312 312 313 314 316 318 319 319 321 322 320 318 318 318 318 318 318 318 318 318 318 317 316
312 314 313 313 313 312 310 308 307 307 307 308 309 310 309 305 304 304 305 305 305 304 304 305 305 304 303 301 300 300 300 300 301 301 301 301 301 301 301 301 301 301 301 301 302 302 302 302 302 302 301 301 300 301 301 303 304 305 306 306 307 308 309 310 311 311 311 311 312 314 315 315 315 316 317 317 317 317 317 318 317 317 317 317 316 314 312
313 313 311 310 311 309 307 306 307 307 307 308 310 313 310 304 302 302 302 302 303 303 303 303 303 302 301 300 299 300 300 300 300 300 301 301 301 301 301 301 301 301 301 301 302 302 302 302 302 302 302 302 301 299 299 300 301 303 303 304 306 306 307 308 309 310 310 311 311 312 312 312 311 312 315 317 317 317 317 316 315 315 315 315 314 312 311
311 310 309 308 308 307 306 306 307 307 307 309 311 311 307 302 300 301 300 300 301 301 301 301 300 299 299 299 299 300 300 300 300 300 300 300 300 300 301 301 301 301 301 301 301 301 302 302 302 302 302 302 302 300 300 299 300 300 301 302 304 305 306 307 308 308 309 310 310 310 311 311 310 310 312 314 315 315 315 314 313 313 313 313 312 312 311
310 309 308 308 308 307 305 306 306 307 309 311 309 305 302 301 300 300 299 299 300 300 300 299 299 299 299 299 299 300 300 300 300 300 300 300 300 300 300 301 300 300 300 300 300 301 301 301 302 302 302 302 302 301 301 300 300 300 300 301 302 303 304 305 306 307 307 308 309 309 309 310 310 309 310 311 312 313 313 312 312 312 312 312 312 312 311
310 309 308 309 309 306 304 306 307 306 308 307 303 301 301 300 300 299 299 299 299 300 299 299 299 299 300 300 300 300 301 301 301 301 301 301 301 301 300 300 300 300 300 300 300 300 300 301 301 302 302 302 301 301 301 301 301 300 301 301 301 301 302 303 304 305 306 306 306 307 308 308 308 308 309 309 309 310 310 311 312 312 311 310 311 311 310
308 309 308 308 307 304 303 305 306 304 304 303 301 301 301 300 300 300 300 299 299 299 299 299 300 300 300 300 301 301 301 301 301 301 301 301 300 300 300 299 299 299 299 299 300 300 300 300 300 301 301 301 301 301 301 301 301 301 301 301 301 301 301 301 302 303 304 305 306 306 306 306 307 308 308 308 308 308 308 309 309 308 307 307 308 308 308
306 306 306 305 303 302 303 303 303 302 302 301 301 301 301 300 300 300 300 300 300 299 300 300 300 300 300 301 301 301 301 301 301 301 300 300 299 299 299 299 299 298 298 298 298 299 300 300 300 300 300 301 301 301 301 301 300 301 301 301 301 301 301 301 301 301 301 303 304 305 305 306 306 306 306 307 307 307 306 306 306 305 305 304 304 304 305
305 305 304 303 303 302 302 301 301 301 301 301 301 301 301 301 300 300 300 300 300 300 300 300 300 301 301 300 300 300 300 300 300 300 299 299 299 299 299 299 299 298 298 298 298 298 299 300 300 300 300 300 300 300 301 301 300 300 301 301 301 301 301 301 301 301 301 301 301 302 304 305 305 305 305 305 306 305 305 305 304 304 304 303 303 303 303
305 305 304 304 303 302 302 301 301 301 301 301 301 301 301 301 300 300 301 300 300 300 301 300 300 300 300 300 300 300 300 300 300 299 299 299 299 299 299 299 299 299 299 298 297 298 298 299 299 299 300 300 299 299 300 301 300 300 300 301 301 301 301 301 301 301 301 301 300 300 301 301 303 304 304 304 304 304 304 304 303 303 302 302 302 303 302
305 305 304 303 303 302 302 301 301 301 301 301 301 301 301 301 301 301 301 300 300 301 300 300 300 300 299 299 300 299 300 300 300 299 300 299 299 299 299 299 299 299 299 298 298 297 297 298 298 299 299 299 299 299 299 300 300 300 300 300 300 300 301 301 301 301 301 301 301 300 300 299 299 300 301 301 301 302 302 302 302 302 302 302 302 302 301
305 305 304 303 302 302 302 301 301 301 301 301 301 301 301 301 300 300 300 300 300 300 300 300 300 299 299 299 299 299 299 300 300 300 300 300 299 299 298 298 298 298 298 298 297 297 297 297 298 298 299 299 299 298 298 299 300 300 300 300 300 300 300 300 300 301 301 301 300 300 300 299 298 297 297 298 300 301 301 301 301 301 301 301 301 302 302
305 305 304 303 303 302 302 301 301 300 300 301 301 300 300 300 300 300 300 300 299 299 300 300 299 299 299 299 299 299 299 299 299 299 299 299 299 299 298 297 297 297 297 297 297 297 297 297 298 298 298 298 298 298 298 299 300 300 300 300 300 300 300 300 300 300 300 300 300 300 300 299 299 297 297 297 298 300 300 301 301 301 301 301 301 301 301
305 304 304 303 303 302 301 301 301 300 301 301 301 301 301 301 301 301 301 300 300 300 300 300 300 300 299 299 299 299 299 299 299 299 298 299 298 298 297 297 297 297 297 297 297 297 297 297 298 298 298 298 298 297 297 298 299 299 299 299 300 299 299 300 300 300 300 300 300 300 300 300 299 299 298 298 298 298 298 298 299 299 299 300 300 299 299
303 304 304 303 303 303 302 302 301 301 301 301 301 301 301 301 301 301 301 301 301 301 301 300 300 300 299 299 299 299 299 299 299 299 298 298 297 297 297 297 297 296 295 295 296 296 296 297 297 298 298 298 298 297 297 297 298 299 299 299 299 299 299 299 299 299 299 300 300 300 300 300 300 300 299 299 298 298 297 297 297 297 297 297 297 297 297
304 304 304 303 303 303 303 302 302 302 302 302 302 302 302 302 302 302 302 302 301 301 301 301 300 300 300 299 299 299 299 299 299 299 298 297 297 297 297 297 296 294 293 294 296 296 296 296 297 298 298 298 298 298 298 297 297 298 299 299 299 299 299 299 299 299 299 299 299 299 300 300 300 300 300 299 299 299 298 298 298 297 297 297 297 297 297
303 303 304 304 303 303 303 303 303 303 302 302 302 302 302 302 302 301 301 301 301 301 301 301 300 300 299 299 299 299 299 299 299 298 298 298 298 298 297 297 296 295 293 292 293 295 295 296 296 298 298 298 298 298 298 297 297 298 299 299 299 299 299 299 298 299 298 298 298 299 299 299 299 299 299 300 299 299 299 299 299 298 297 297 296 296 296
302 302 303 303 302 303 303 303 302 303 302 302 302 302 301 301 301 301 301 301 301 301 301 301 300 300 299 299 299 299 299 299 299 298 298 298 298 297 296 295 295 294 293 292 293 295 296 296 296 297 297 298 298 298 298 298 297 297 298 298 299 299 299 299 298 298 298 298 298 298 299 298 298 299 299 299 299 299 299 299 299 298 298 297 297 296 296
301 301 301 301 301 301 301 301 301 301 302 302 301 301 301 301 302 302 301 301 301 301 301 301 300 300 299 299 299 299 299 299 299 298 298 298 297 295 295 294 294 294 293 294 296 297 297 297 297 297 297 297 297 298 298 298 298 297 297 297 298 299 299 298 297 297 298 298 297 298 299 298 298 298 298 299 299 299 299 299 298 298 297 297 297 297 296
301 301 301 300 300 300 300 300 300 300 301 301 301 301 301 302 302 302 302 301 301 301 301 300 300 300 300 299 299 299 299 298 298 298 298 297 295 294 294 295 295 294 293 295 297 297 297 297 297 296 296 297 297 297 298 298 298 297 297 297 298 299 299 298 297 297 298 298 298 298 298 298 298 298 298 298 298 299 299 299 298 297 297 297 297 297 297
301 301 301 300 300 300 300 300 300 300 300 300 300 300 300 301 301 301 301 300 300 300 300 300 300 300 299 299 299 299 299 298 298 298 297 296 295 295 294 295 295 294 294 295 296 296 297 297 296 294 295 296 296 296 297 298 298 298 297 297 298 299 298 297 297 297 297 297 298 298 298 298 297 297 297 297 298 298 298 298 297 297 297 297 297 297 296
301 301 301 300 300 300 300 300 300 300 300 300 300 300 300 300 300 300 300 299 300 300 299 299 299 299 299 299 299 299 299 299 299 299 298 297 295 295 295 295 295 294 294 295 296 296 297 296 295 293 294 295 296 297 297 298 298 298 297 297 298 299 298 296 296 297 297 297 298 298 297 297 297 297 297 297 297 297 297 297 297 297 296 296 296 296 295
301 301 301 301 300 300 300 300 300 300 300 300 300 300 300 300 300 300 300 299 299 300 300 300 300 299 299 299 299 299 299 299 299 299 298 297 295 295 295 296 295 295 295 295 296 296 296 296 295 294 293 294 296 296 297 298 298 297 297 297 298 298 297 296 296 297 297 297 298 297 297 297 297 297 297 297 297 297 297 296 296 296 296 296 296 295 295
301 301 301 301 300 300 301 300 300 300 300 300 300 300 300 300 300 300 300 299 299 300 300 300 300 300 300 300 299 299 299 299 299 298 297 296 296 296 296 296 296 295 295 294 295 296 296 296 296 294 293 294 295 296 296 297 298 297 297 297 298 298 297 297 297 297 297 297 298 297 297 297 297 297 297 296 296 296 296 296 296 296 295 295 295 295 294
301 301 301 301 301 301 301 300 300 300 300 300 300 300 300 300 300 300 299 299 299 300 300 300 300 300 300 299 299 299 299 298 298 297 296 296 296 296 296 296 296 295 295 295 295 296 297 297 295 293 293 294 296 296 296 297 297 297 297 298 298 298 297 297 297 297 297 297 297 297 297 297 297 296 296 296 296 296 296 295 295 295 295 295 295 294 294
301 301 301 301 300 300 300 300 300 300 300 300 300 300 300 300 300 299 299 299 299 299 300 300 300 300 300 299 299 299 299 298 298 297 297 297 297 297 297 297 296 295 295 295 295 296 297 296 294 292 294 296 296 296 297 297 298 298 298 297 297 297 297 298 298 297 296 297 297 297 296 296 296 296 296 296 296 296 295 295 295 295 295 295 295 294 293
301 301 300 300 300 300 300 300 300 300 300 300 299 300 300 300 300 300 300 300 300 300 300 300 300 300 300 299 299 299 299 298 298 298 298 298 298 298 297 297 296 296 296 296 296 296 296 295 292 292 295 296 297 296 297 297 297 297 297 296 297 297 297 297 297 297 296 296 297 296 296 296 295 295 295 295 295 295 295 294 295 295 295 295 294 294 293
300 300 300 300 300 300 300 300 300 300 300 300 299 300 300 300 300 300 300 299 300 300 300 300 300 300 300 300 299 299 299 299 299 299 299 298 298 299 298 297 296 296 295 296 296 295 294 293 292 294 296 297 297 296 297 296 296 296 296 297 297 298 297 297 297 296 296 296 296 296 296 295 296 295 295 294 294 294 294 295 295 294 294 294 294 293 293
300 300 300 300 300 300 300 300 300 300 299 299 299 300 300 300 300 300 300 300 300 300 300 300 300 300 300 300 300 299 299 299 299 299 299 299 299 299 297 296 296 296 296 296 295 294 293 293 293 294 296 296 297 297 297 297 296 297 297 297 298 297 297 297 297 296 296 296 296 296 295 296 296 295 295 294 294 294 294 295 295 294 294 294 294 293 292
300 300 300 300 300 300 300 300 300 299 299 300 300 300 300 300 300 300 300 300 300 300 300 300 300 300 300 300 300 300 300 299 299 299 299 299 299 299 297 296 296 296 296 295 295 293 293 293 293 294 295 295 295 295 296 297 297 297 297 297 297 297 297 297 297 296 296 296 296 296 296 296 296 295 295 294 293 293 294 294 294 294 294 294 294 293 292
300 300 300 300 300 300 300 300 300 300 300 300 300 299 300 300 300 300 300 299 300 300 300 300 300 300 300 300 300 300 300 299 299 299 299 299 299 299 298 297 297 296 296 295 295 294 293 293 293 294 295 295 294 293 293 294 296 297 297 297 297 297 297 297 297 297 296 296 296 296 296 296 296 295 295 294 294 293 294 294 293 293 294 294 294 293 293
300 300 300 300 300 300 300 300 300 300 299 299 299 299 300 300 299 300 299 299 299 300 300 300 300 300 300 300 300 300 299 299 299 299 299 299 299 299 298 298 297 296 295 295 295 295 294 293 292 293 295 295 294 293 292 292 293 295 296 297 297 296 296 296 296 297 296 296 296 296 296 296 296 296 295 294 294 294 294 293 293 294 295 295 294 294 293
300 300 300 300 300 300 300 300 300 299 299 299 300 300 300 299 299 299 299 299 299 300 300 300 300 300 300 300 299 299 299 299 299 299 299 299 299 299 299 298 298 297 296 296 295 296 295 293 292 293 295 295 294 293 292 291 291 293 296 297 296 295 295 295 296 296 296 296 296 296 296 296 296 296 295 294 294 294 294 293 293 294 295 295 294 294 293
300 300 300 300 300 300 300 299 299 299 299 300 300 300 299 299 299 299 299 299 299 299 300 300 300 300 300 300 299 299 299 299 299 299 299 299 299 299 298 298 298 298 297 296 296 296 295 292 291 292 293 292 292 291 290 290 290 292 295 296 295 294 294 295 295 296 296 296 296 296 295 295 296 296 295 295 294 294 294 293 293 294 294 294 294 294 293
300 300 300 300 300 300 300 299 299 299 299 299 299 299 299 299 299 299 299 299 300 300 300 300 300 300 300 300 299 299 299 299 299 299 299 299 299 298 298 298 298 298 297 296 296 295 293 291 290 291 291 291 290 289 289 288 288 291 293 295 294 294 294 294 295 296 296 296 296 296 295 295 295 295 295 295 295 294 293 293 293 293 294 294 295 294 294
300 300 300 300 300 299 299 299 299 299 299 298 298 298 299 299 299 299 299 299 299 299 300 300 300 300 300 300 300 300 299 299 299 299 299 298 298 298 297 297 297 297 296 295 295 295 293 292 292 292 292 292 292 290 289 288 288 289 291 293 294 294 293 293 294 295 295 295 295 295 295 295 295 295 295 295 294 294 293 293 293 293 294 295 294 294 293
300 300 300 300 299 299 299 299 299 299 299 298 298 298 299 299 299 299 299 299 299 299 299 300 300 299 299 300 299 299 299 299 299 299 299 298 298 297 297 297 296 296 295 295 295 294 293 293 294 293 293 293 293 292 290 289 288 289 291 292 293 294 294 293 293 294 295 295 295 295 295 295 295 295 295 295 294 294 293 293 293 294 294 294 293 293 293
300 300 300 300 299 299 299 299 298 298 298 299 299 299 299 299 299 299 299 299 299 299 299 299 299 299 300 300 299 299 299 299 299 299 299 298 298 297 297 297 296 295 295 295 295 294 294 294 294 294 293 293 294 293 291 289 288 288 290 292 293 293 293 293 293 293 294 295 295 295 295 295 295 294 295 294 294 294 294 293 293 293 293 293 293 293 293
300 300 300 299 299 299 299 298 298 299 299 299 299 299 299 299 299 299 299 299 299 299 299 299 299 299 299 299 299 299 299 299 299 298 298 298 298 297 297 297 296 295 295 295 295 295 294 294 294 294 293 293 293 293 292 290 290 290 291 293 293 293 293 293 293 293 293 294 295 295 295 295 295 295 294 294 294 294 294 293 293 293 292 292 293 293 293
300 300 299 299 298 299 298 299 299 299 298 298 298 298 298 298 299 299 299 299 299 299 298 299 299 299 299 299 299 298 298 298 298 298 298 298 298 297 297 297 296 295 296 296 296 295 295 295 294 294 293 293 293 293 292 292 292 292 292 292 293 293 293 293 293 293 293 294 295 295 294 295 295 295 294 294 294 294 294 294 293 293 293 292 293 293 293
299 299 299 299 298 298 299 299 299 298 298 298 298 298 298 298 299 299 299 299 299 298 298 298 299 299 299 299 298 298 297 297 298 298 298 298 297 297 297 297 296 296 296 295 295 294 294 294 294 294 293 293 293 293 292 292 292 293 292 292 292 292 292 292 292 292 293 293 294 294 294 294 294 295 294 294 294 294 294 294 293 293 293 293 293 293 293
299 299 299 299 298 298 298 298 298 298 298 298 298 298 298 298 298 298 299 299 298 298 298 298 299 299 298 298 297 297 297 297 297 297 297 297 297 296 296 297 296 296 295 295 294 294 294 294 294 294 294 293 293 293 293 293 293 293 292 291 291 291 291 290 290 291 291 291 291 292 293 294 294 294 294 294 294 294 294 294 293 293 293 293 293 293 293
299 299 299 299 298 298 298 298 298 298 298 298 298 298 298 298 297 297 298 298 298 298 298 298 298 298 298 297 297 296 296 296 296 296 297 297 296 296 296 296 296 296 295 295 294 294 294 294 294 294 294 294 293 293 293 293 292 293 293 292 292 292 292 291 291 291 291 291 290 289 290 292 294 294 294 294 294 294 293 293 293 293 293 293 293 293 293
Wind_Speed
12 12 12 11 12 10 10 11 10 10 10 10 9 5 3 3 4 4 7 10 8 5 6 7 7 7 8 10 13 15 17 18 17 20 23 23 23 24 26 26 26 27 27 28 29 29 29 28 27 25 23 20 16 14 11 6 2 3 7 10 11 15 19 22 26 30 32 33 33 33 32 32 30 27 26 26 27 25 24 25 27 26 24 22 22 20 20
11 11 12 12 13 12 11 11 10 9 11 11 9 8 9 10 9 8 11 13 9 5 5 6 8 9 9 12 15 18 20 19 18 21 22 22 23 25 26 26 26 26 26 27 28 28 29 29 28 27 26 24 22 19 16 12 7 4 5 9 11 13 16 19 21 23 27 31 32 32 33 32 30 28 28 28 28 27 27 27 28 26 23 23 23 21 22
6 7 11 12 13 14 13 11 9 8 9 10 9 7 7 9 10 9 11 11 7 5 6 8 9 11 12 15 17 19 20 19 19 20 20 20 23 26 26 26 26 25 26 27 27 28 28 28 27 26 25 24 23 22 21 18 15 12 8 8 10 11 15 18 19 18 22 31 32 30 32 33 31 29 30 30 29 29 29 29 28 26 24 23 24 22 22
2 4 10 12 12 14 13 10 10 9 8 8 7 6 6 4 6 8 8 6 3 3 5 8 10 13 16 17 17 18 19 19 20 20 19 20 22 24 24 24 24 25 25 25 26 26 26 26 26 25 23 22 22 22 22 21 20 18 15 12 10 10 12 14 17 19 21 28 31 30 32 34 32 31 32 33 31 30 31 31 29 27 25 24 23 23 23
2 4 7 8 7 7 6 5 5 4 5 7 7 7 9 7 3 4 3 3 4 4 5 7 9 12 15 17 17 17 17 17 18 18 19 19 20 21 22 22 22 23 23 23 24 24 24 24 24 23 22 22 21 20 20 19 19 19 17 15 13 11 11 10 13 18 19 22 28 32 35 35 34 34 35 35 34 33 33 32 29 28 27 25 24 24 24
4 5 2 4 4 3 1 3 2 2 5 8 9 8 9 8 6 5 5 5 6 5 6 7 9 11 14 17 18 18 17 17 16 16 17 18 19 20 21 21 22 22 22 22 23 23 24 24 23 22 22 22 21 19 18 18 18 18 18 16 14 12 11 11 11 14 16 17 21 28 36 38 37 37 37 36 35 35 34 32 30 28 27 27 26 25 24
4 2 3 4 2 2 2 2 5 8 9 11 12 11 11 9 8 8 8 7 7 9 10 12 14 17 18 19 19 19 18 18 18 18 18 18 19 20 21 22 24 24 23 23 24 24 25 24 23 23 24 23 22 20 19 19 20 21 20 18 16 14 11 10 9 10 15 17 17 23 33 39 39 38 38 36 35 36 35 32 30 29 28 27 27 25 23
3 2 3 2 3 3 3 3 4 7 6 6 8 9 10 9 6 6 7 7 9 12 13 14 17 20 22 21 20 18 17 17 19 19 19 18 18 19 21 22 23 23 24 25 25 25 25 25 25 25 25 24 24 23 22 22 22 23 24 24 23 20 16 12 6 4 13 17 18 22 31 38 38 37 38 38 35 34 35 32 30 29 28 27 26 24 21
3 3 3 3 4 3 2 1 1 2 2 2 1 4 5 7 8 5 6 8 10 11 13 15 16 17 19 17 16 16 17 17 18 17 17 17 16 17 19 20 20 21 21 22 24 25 26 27 28 27 26 25 24 23 24 24 24 23 24 25 26 26 24 21 14 6 8 14 17 20 26 33 37 38 37 38 36 34 34 32 31 30 28 26 24 22 21
2 4 4 3 3 2 2 1 2 4 7 6 2 3 3 4 8 7 5 7 10 11 12 13 10 8 9 7 8 13 16 16 16 16 16 16 16 16 17 18 19 20 20 20 22 23 25 27 28 28 28 27 25 25 25 25 25 25 25 26 26 25 25 24 21 17 11 11 15 19 23 26 32 37 37 36 36 35 33 32 31 30 28 27 24 22 20
2 4 3 2 1 1 1 1 4 7 9 7 3 1 2 1 6 6 4 5 7 8 9 11 8 2 4 2 3 9 14 15 16 17 16 16 16 16 17 17 18 19 19 19 20 21 23 24 25 26 27 28 29 29 29 27 26 26 26 25 24 23 23 22 21 21 19 17 17 20 23 23 25 31 36 36 35 34 33 32 31 29 28 26 24 22 20
3 4 3 1 1 0 1 2 5 8 8 4 0 1 2 1 4 4 2 4 5 5 6 7 4 3 4 6 5 8 12 14 16 16 16 16 16 16 16 16 17 17 18 18 20 21 22 22 23 23 24 26 29 30 30 29 28 27 25 22 21 20 20 20 19 20 19 19 20 19 20 21 23 26 32 34 33 32 32 30 28 28 26 25 24 23 21
4 4 3 1 1 1 1 4 6 6 4 1 2 1 2 4 5 4 3 4 5 6 8 11 10 10 12 14 11 9 11 13 14 14 13 13 14 14 14 14 15 16 16 17 18 19 19 19 20 21 22 24 26 27 28 29 29 28 26 23 20 18 17 18 19 20 19 18 18 18 18 19 21 24 27 28 27 26 25 24 23 24 23 23 23 22 20
2 3 3 2 1 0 3 4 3 2 1 2 2 3 6 8 9 7 8 11 11 13 17 21 20 19 19 16 12 9 9 10 11 11 10 10 10 11 11 11 12 14 15 16 16 16 16 16 18 20 21 22 23 24 25 26 26 26 25 25 24 22 19 17 16 17 19 19 18 16 14 13 15 19 23 23 22 21 19 17 17 18 18 18 19 19 18
2 3 3 2 2 3 7 4 2 3 2 5 10 12 11 11 13 14 15 17 19 22 25 24 22 19 16 13 11 10 9 9 9 10 10 10 12 12 12 12 12 13 14 16 17 16 15 15 15 18 20 21 21 21 22 21 20 21 22 24 25 26 26 23 19 15 15 16 18 18 16 13 12 14 18 20 20 20 18 16 15 15 14 14 16 16 16
1 3 2 2 2 6 7 4 4 5 8 14 18 18 16 14 15 17 18 18 20 23 25 22 19 16 13 11 10 9 9 8 8 9 11 14 15 16 17 17 17 17 17 17 17 17 16 17 16 16 17 18 19 19 19 18 17 17 19 21 22 25 27 27 25 21 16 12 12 15 17 17 16 15 16 18 20 20 18 17 17 17 15 14 14 15 15
4 4 4 7 10 13 15 17 16 14 15 17 19 21 20 16 16 18 18 18 19 20 21 19 16 13 11 9 8 8 9 9 9 11 14 17 18 18 19 20 20 20 20 19 19 17 16 18 19 17 15 16 18 19 17 17 17 15 16 18 20 22 24 26 26 26 23 19 14 11 10 11 13 14 14 15 17 19 19 18 17 17 17 16 15 14 14
9 10 10 12 14 16 19 20 19 18 18 18 20 22 20 17 17 17 17 17 17 17 16 16 14 12 10 9 9 11 12 13 13 14 16 18 18 18 18 17 17 17 18 18 19 17 15 15 17 17 15 15 17 18 16 15 16 14 13 15 18 19 21 22 23 24 25 24 22 18 13 9 8 9 10 10 13 15 16 16 15 14 14 13 12 11 12
5 6 7 9 13 16 19 20 19 19 18 18 19 19 18 17 16 15 15 16 16 14 14 16 16 15 13 13 14 15 16 16 16 15 15 15 15 15 15 15 14 14 14 15 17 17 15 14 14 14 13 14 16 17 15 13 13 13 13 14 15 17 18 19 20 21 22 22 23 23 21 17 12 10 10 9 10 11 11 12 12 12 11 11 10 11 12
6 6 8 12 15 16 18 20 20 20 19 18 17 16 16 15 14 14 14 14 14 15 16 17 18 17 15 15 15 14 13 13 12 13 13 13 14 14 14 14 14 13 11 12 15 18 17 14 13 12 12 12 15 17 17 14 11 11 12 13 13 13 14 15 17 18 18 19 20 21 21 20 17 15 13 12 11 11 11 11 11 10 10 11 11 12 13
7 8 12 15 14 12 12 17 20 22 22 22 19 17 16 16 15 15 14 13 14 15 16 16 15 14 13 12 11 10 9 8 8 8 9 10 11 13 14 15 15 13 10 11 15 18 17 15 13 12 12 12 14 17 18 15 12 10 10 11 11 11 10 12 13 14 14 15 16 18 19 19 17 16 14 12 11 12 12 11 10 9 8 9 9 9 9
4 6 13 14 10 6 9 16 21 23 23 23 21 20 20 19 18 17 16 15 14 14 15 14 13 12 11 10 10 9 8 8 7 8 8 8 8 10 12 13 13 11 10 11 12 14 15 14 11 11 11 11 14 18 18 15 12 11 9 8 9 10 9 10 11 11 12 12 13 14 16 18 17 16 13 11 8 7 7 6 6 4 4 4 5 5 4
7 15 20 17 14 14 17 21 23 23 22 22 22 21 21 20 19 18 17 16 14 12 11 11 10 10 9 9 8 8 8 7 7 8 8 6 7 9 10 9 10 11 11 10 9 10 13 14 11 9 9 10 13 17 17 15 13 11 8 8 9 10 10 10 10 11 11 11 11 11 11 13 15 15 14 13 12 10 8 7 5 3 2 1 1 2 1
15 21 22 19 20 21 21 22 23 21 20 20 19 19 19 18 18 17 16 15 14 12 11 10 9 8 8 7 6 7 8 8 7 7 7 7 8 7 6 7 11 14 13 10 9 9 12 13 12 9 7 7 11 15 16 15 13 9 8 10 11 11 11 10 12 13 12 11 10 8 7 8 10 11 12 12 13 13 13 12 10 8 7 6 6 6 6
19 21 20 21 23 24 22 21 21 19 17 17 17 17 17 16 16 16 15 14 13 12 11 11 10 8 7 6 6 6 7 8 8 7 7 6 4 4 5 7 11 14 13 10 9 9 10 11 12 10 5 4 8 12 12 13 13 9 6 8 11 11 11 10 10 12 12 12 10 7 5 5 6 7 7 7 10 12 12 12 12 10 9 8 8 8 8
23 23 22 21 22 23 23 20 18 17 15 14 14 14 14 13 12 12 12 11 11 10 10 10 9 7 6 5 5 5 5 4 4 6 6 2 2 4 6 9 11 13 12 10 9 9 9 10 10 8 4 3 5 8 9 11 13 10 7 6 7 9 10 9 8 9 10 10 9 6 5 6 6 5 3 4 6 8 8 9 10 10 9 8 8 7 6
24 24 24 22 21 23 23 18 15 15 14 13 13 13 12 11 10 10 10 9 8 8 7 7 7 7 5 4 3 2 1 1 2 5 4 1 3 5 7 9 11 12 12 9 7 8 11 12 11 9 6 5 5 6 6 8 11 12 10 7 6 6 7 7 7 8 8 8 7 5 4 6 7 6 5 4 4 4 5 6 7 8 8 8 8 6 4
20 21 21 20 19 20 20 16 14 14 14 13 13 13 12 12 11 9 8 8 8 8 8 8 7 6 6 5 3 3 2 1 3 5 1 3 6 7 8 9 11 12 10 8 8 10 13 14 15 14 11 8 6 5 4 6 9 11 11 10 8 6 6 6 6 5 6 6 6 4 4 6 7 7 7 6 5 3 3 5 6 6 7 7 7 7 6
19 19 18 17 16 17 17 16 15 14 13 14 13 12 11 13 13 11 9 8 7 8 10 9 7 6 6 5 4 4 3 3 4 2 3 6 7 7 7 9 12 12 9 6 7 9 11 13 16 18 16 13 9 6 4 5 7 8 10 11 9 7 6 5 3 3 5 6 5 4 5 6 7 6 6 7 6 4 3 3 4 5 5 6 6 7 6
19 18 18 17 16 16 16 15 14 12 11 12 12 12 12 13 12 11 9 7 6 6 7 7 7 8 7 4 2 1 1 2 1 3 7 8 7 7 7 8 11 12 9 5 5 7 10 12 15 18 17 15 12 8 5 5 5 5 9 11 8 6 5 3 2 4 4 5 3 3 4 6 7 7 5 5 5 4 3 3 3 3 4 4 5 6 6
21 19 18 17 16 15 15 14 12 11 10 10 12 14 14 12 11 10 9 8 7 6 5 5 7 8 6 2 1 1 1 1 3 6 8 9 8 6 6 9 11 12 9 5 5 8 9 11 15 18 18 15 13 9 5 6 5 2 6 9 7 5 4 1 3 3 3 4 3 3 4 5 6 6 6 6 5 4 3 4 4 4 3 4 5 6 5
21 19 17 16 15 14 13 12 11 12 11 11 12 14 12 9 8 7 6 4 4 4 5 5 4 4 2 1 1 1 2 4 6 8 9 9 7 5 6 9 11 10 7 5 6 8 9 11 16 20 20 16 13 8 5 5 5 2 4 7 6 4 2 1 3 4 2 1 1 3 5 5 4 5 7 8 8 8 8 8 8 7 5 4 5 6 5
20 20 18 17 16 14 12 13 13 12 10 9 10 10 8 6 7 7 5 3 4 5 4 3 3 2 1 1 2 2 4 7 9 9 9 7 6 5 7 8 9 9 7 6 7 8 8 11 17 21 21 18 13 8 5 5 4 2 2 5 6 4 2 2 2 3 4 3 2 3 4 4 4 4 6 7 8 8 8 8 8 7 5 5 5 5 3
17 18 18 17 15 13 13 14 14 12 10 9 9 9 8 8 7 6 5 4 5 5 3 3 2 2 1 1 2 4 6 8 8 7 7 6 6 6 8 8 9 8 7 7 8 7 8 12 18 21 21 17 10 5 3 2 1 1 2 6 8 6 4 5 2 2 5 5 3 2 3 4 4 5 7 7 8 8 7 6 6 6 5 4 3 4 4
17 17 17 16 14 13 13 13 11 9 8 8 8 9 10 10 8 6 6 5 5 4 3 2 1 1 2 3 4 5 6 7 6 5 5 6 6 7 8 8 7 6 5 7 8 7 8 14 18 18 16 12 7 3 3 3 2 1 4 7 10 10 6 7 3 2 3 4 3 3 4 5 6 7 7 7 8 7 5 5 5 5 3 2 3 6 7
19 19 19 17 14 13 12 11 10 9 7 7 8 10 11 9 7 5 5 4 4 4 3 2 1 1 3 4 4 5 6 6 4 4 5 5 6 7 8 8 6 4 5 8 9 8 10 14 16 13 10 8 5 3 3 2 0 4 6 8 11 10 5 5 2 1 1 3 3 3 5 6 7 8 8 7 6 4 3 4 3 2 1 3 4 6 8
18 18 18 16 13 12 10 9 8 8 6 6 6 8 9 8 6 5 4 4 3 2 1 0 1 3 4 4 5 6 6 5 5 6 6 6 6 7 8 7 5 5 6 7 7 8 10 12 13 11 8 7 6 5 5 4 5 6 7 8 8 2 6 5 1 1 3 3 3 5 6 7 8 8 8 6 4 2 3 4 3 1 1 3 5 7 8
16 15 14 13 11 9 8 7 6 5 5 6 7 7 7 7 6 5 4 3 1 1 2 2 2 4 5 5 6 6 5 5 6 7 6 5 6 6 6 4 4 4 5 5 5 7 10 10 11 11 9 7 6 6 6 7 7 6 5 5 2 6 9 5 4 3 2 2 5 6 7 7 7 8 7 6 4 1 3 4 3 1 2 2 5 9 7
12 12 12 11 10 8 7 7 6 5 5 6 6 6 6 5 3 2 1 1 2 2 2 3 3 4 4 4 5 6 5 5 7 8 7 5 5 5 4 3 3 4 5 4 5 8 10 9 8 9 9 8 8 7 6 6 7 5 3 3 1 5 6 2 1 2 3 4 5 7 8 7 6 7 7 5 2 1 3 4 3 1 2 2 3 7 7
11 12 11 10 9 8 7 6 5 4 4 3 3 4 4 2 1 2 3 4 4 3 3 2 4 4 4 4 5 6 6 6 7 7 6 6 6 6 5 5 4 4 5 6 7 10 11 10 7 7 7 7 8 9 9 7 6 4 5 4 1 2 2 2 2 1 4 5 3 5 7 7 6 8 7 5 2 0 2 4 4 4 4 3 1 5 8
12 12 11 9 8 7 6 4 4 4 4 3 2 2 2 2 4 5 6 5 4 4 4 2 3 4 4 5 6 6 6 6 7 7 7 7 8 8 7 7 5 3 4 7 9 11 12 12 9 6 5 6 7 8 9 8 6 4 5 5 3 1 2 2 2 3 4 5 4 3 4 6 7 7 7 5 3 1 1 3 5 5 5 3 2 3 7
13 11 9 9 8 6 5 5 5 4 3 3 2 2 2 3 3 4 4 4 2 2 4 3 4 5 5 5 5 5 6 6 6 7 8 8 9 9 9 8 7 6 6 7 9 12 13 13 10 6 5 6 8 9 10 9 6 2 4 5 4 3 4 4 4 4 4 6 5 4 3 5 7 6 6 6 5 3 2 4 6 5 5 4 3 2 5
12 10 9 9 7 5 5 5 4 2 3 3 2 1 2 2 1 2 2 3 2 2 2 3 5 6 6 6 6 6 7 7 6 7 8 9 10 10 9 7 7 7 7 8 9 12 13 12 9 7 7 8 10 11 11 9 5 2 5 6 3 3 4 4 4 5 6 7 6 4 3 3 5 6 6 6 5 4 3 4 8 7 5 4 4 2 2
9 7 8 9 7 4 3 4 3 2 1 1 1 1 2 2 2 2 2 3 4 4 4 4 4 5 6 6 7 7 7 6 7 8 9 8 9 9 7 6 6 7 7 7 9 12 11 9 7 7 8 9 11 12 11 9 5 4 6 8 5 4 4 3 4 5 6 7 7 5 3 3 4 5 5 4 3 4 3 2 7 9 7 5 5 5 2
7 5 5 6 4 3 3 4 4 1 1 2 1 2 2 2 3 4 5 5 5 6 6 5 4 5 6 6 6 6 6 6 7 8 8 7 6 6 5 4 5 5 6 6 9 10 8 7 7 8 9 11 12 12 11 9 7 5 7 8 8 5 4 3 2 4 6 7 8 7 5 3 3 4 5 4 3 4 4 2 6 9 7 5 4 4 3
7 6 5 4 3 3 3 4 3 2 3 5 5 5 5 3 4 5 5 4 4 4 4 4 4 4 5 6 6 6 6 7 8 9 9 8 6 4 3 3 4 5 5 5 7 7 6 6 7 8 9 11 13 14 12 9 7 6 6 7 7 5 4 3 3 4 6 8 9 9 8 6 4 4 5 5 3 3 4 3 3 7 8 5 3 2 2
6 7 7 5 4 4 4 4 4 3 3 3 2 2 1 2 2 2 3 3 3 1 0 1 3 4 5 6 6 6 7 8 9 10 9 8 6 4 4 6 7 6 5 5 6 7 6 6 6 7 8 11 14 14 11 7 5 5 6 7 5 4 4 5 5 5 5 7 9 10 10 9 6 4 4 4 4 3 3 3 1 4 7 7 5 3 2
8 8 8 6 4 4 4 6 5 3 2 2 2 1 1 1 1 2 1 0 1 1 1 2 4 5 5 5 7 7 8 8 9 9 8 8 7 5 6 8 9 9 7 8 9 9 8 7 6 8 9 11 13 12 8 4 2 2 5 6 5 6 6 8 10 8 6 6 7 8 8 9 9 7 6 5 5 5 4 3 2 2 4 5 5 4 4
9 8 6 5 5 4 4 5 5 3 2 2 1 1 1 2 3 1 1 2 1 1 2 3 4 5 5 6 8 8 7 7 7 7 7 7 7 6 6 7 9 9 9 9 9 8 7 7 6 7 8 9 10 10 7 3 2 1 3 6 7 9 10 12 13 11 8 7 7 6 6 7 8 7 6 5 5 6 6 3 2 1 2 3 4 5 5
10 7 6 5 5 4 4 5 5 3 2 1 2 4 1 3 4 2 1 1 2 3 2 2 3 4 5 7 8 8 7 6 6 5 5 5 6 6 6 6 6 6 6 6 6 6 5 5 5 6 7 7 7 8 7 6 5 6 6 7 7 9 11 12 11 10 8 8 9 8 6 6 6 6 6 5 6 6 6 5 3 2 3 4 5 5 4
9 8 6 5 4 3 4 4 4 3 2 1 3 3 1 1 1 1 1 1 2 3 2 3 4 6 7 8 8 6 4 3 3 3 4 5 5 5 5 5 5 5 4 4 4 4 4 4 5 6 6 6 7 9 9 7 6 7 7 5 4 5 7 7 6 5 5 6 8 10 9 8 8 9 9 9 7 5 5 5 5 4 4 4 4 4 5
9 7 5 4 3 3 3 3 3 4 3 1 1 1 0 1 1 2 3 2 1 3 4 4 5 6 6 7 7 4 1 0 0 1 3 5 5 4 5 6 6 6 6 6 5 5 5 6 7 7 6 7 7 9 8 7 6 5 5 4 4 5 7 6 5 5 6 6 5 6 9 10 11 11 11 10 8 6 4 4 5 4 4 4 5 5 5
Wind_Direction
83 87 84 81 82 74 61 61 56 47 47 52 58 46 18 80 110 134 122 100 93 92 72 59 48 41 42 44 44 44 43 38 34 38 40 38 36 39 43 44 42 39 35 32 30 28 26 25 23 23 24 20 14 9 3 352 305 233 232 234 226 213 209 209 208 207 206 206 207 209 207 204 204 204 202 192 181 175 173 173 177 178 178 179 179 179 182
80 85 89 85 83 77 57 47 50 57 57 53 49 45 56 75 85 99 101 94 84 76 71 61 50 45 51 55 50 46 45 41 38 41 41 38 39 43 46 47 47 44 39 34 31 28 26 25 24 23 23 20 16 12 7 1 345 307 257 249 247 231 216 213 214 214 208 205 206 206 204 201 198 198 197 190 182 179 178 179 180 178 177 179 176 172 173
70 84 92 88 86 83 65 39 31 49 58 47 36 32 48 73 89 92 91 92 84 63 67 64 49 46 54 56 52 49 46 44 43 43 39 38 43 48 50 51 50 48 44 37 32 29 28 26 24 24 24 21 19 15 10 6 357 344 324 287 271 255 236 225 222 223 214 207 205 202 200 198 195 193 193 189 186 184 180 179 180 177 174 178 179 179 178
82 108 109 105 99 87 70 42 27 38 53 52 43 34 26 48 111 112 93 88 103 106 87 70 52 50 54 54 55 56 52 47 47 45 40 39 45 48 48 49 51 50 48 43 37 33 31 29 27 27 26 24 23 20 15 10 2 353 341 322 303 282 268 251 234 230 222 210 204 200 198 196 192 190 189 188 188 187 183 182 184 181 180 182 183 183 184
129 173 141 120 103 83 61 17 12 44 74 78 65 40 29 32 70 109 96 103 128 126 102 77 58 53 55 55 57 59 55 49 47 47 44 41 43 46 45 46 50 52 52 50 46 41 38 35 33 32 31 31 30 26 22 18 10 3 355 344 330 310 303 291 251 235 228 217 207 200 196 194 191 188 188 189 189 188 186 186 185 182 182 184 182 181 183
150 195 160 73 63 76 45 324 350 102 107 90 77 48 38 49 63 82 98 113 120 112 99 91 80 69 65 65 64 61 58 53 47 45 45 41 41 46 48 48 52 56 57 55 52 48 46 44 41 38 38 39 38 34 31 30 26 21 14 4 353 338 327 313 277 245 231 229 223 208 197 193 191 189 190 192 191 188 189 188 184 180 180 180 179 179 180
140 151 61 60 77 116 109 48 74 100 104 93 84 63 43 50 75 97 105 111 119 116 107 101 94 86 79 72 64 58 58 60 56 51 50 48 45 48 52 54 55 56 57 56 53 51 50 48 45 43 43 43 43 41 40 39 40 40 36 30 24 14 358 335 300 248 223 226 229 213 199 195 193 191 192 194 191 185 186 187 183 179 178 177 179 179 180
104 62 38 95 136 130 120 93 85 103 103 88 80 61 36 28 49 96 115 117 120 123 117 109 101 94 86 73 58 54 57 62 63 60 57 54 51 51 54 55 54 54 55 55 54 52 51 50 48 45 44 44 43 43 44 45 46 47 46 43 43 41 34 22 2 215 203 210 217 208 197 194 195 193 191 193 192 184 182 184 182 179 178 178 180 182 182
96 96 67 95 124 144 141 91 38 54 32 358 80 87 50 19 21 58 115 127 134 138 132 124 112 95 82 66 47 49 60 64 67 68 64 60 57 57 59 58 57 56 55 56 56 55 54 53 51 49 46 44 44 44 44 46 46 46 45 45 45 47 47 44 41 67 158 182 197 198 188 186 191 193 189 187 186 183 182 182 179 178 178 177 179 182 183
86 113 106 115 152 188 155 115 324 346 357 349 10 108 99 23 16 37 98 130 148 158 156 153 143 93 70 58 38 52 65 69 72 72 70 67 63 60 62 62 62 61 59 58 58 58 57 55 52 50 48 46 45 45 44 44 44 44 45 46 45 46 49 51 49 50 68 112 143 159 163 166 178 187 184 177 175 178 182 182 178 176 176 176 175 177 179
110 117 116 141 191 219 172 265 303 334 351 349 353 94 142 58 19 31 78 116 141 167 190 194 189 118 77 94 43 60 71 75 76 74 70 70 66 61 62 62 60 61 61 61 61 59 57 55 50 49 48 46 46 46 44 43 43 44 46 48 48 49 50 53 55 54 53 62 89 123 140 141 149 165 172 170 169 172 177 178 175 171 172 173 171 169 169
108 102 105 108 97 287 286 289 302 327 346 356 69 182 179 94 30 30 84 115 130 151 174 175 153 84 120 134 95 79 86 86 86 82 76 74 71 66 66 65 63 63 63 61 60 57 55 54 51 48 48 47 47 47 45 44 44 45 46 46 49 53 54 56 57 57 56 54 60 82 105 111 115 134 152 160 163 166 169 171 169 165 166 168 166 163 163
81 93 110 97 87 141 307 307 305 323 353 102 168 209 161 105 68 56 94 119 137 138 125 118 102 96 117 126 118 107 103 97 95 92 86 84 80 74 71 69 67 66 64 61 59 57 55 54 52 50 49 49 50 48 46 45 45 45 46 46 46 49 55 61 64 64 63 61 58 61 71 84 94 107 124 137 145 149 155 157 155 153 156 160 161 159 159
81 101 105 95 120 44 329 314 311 358 36 188 153 110 120 112 97 91 94 105 121 122 112 109 110 109 115 121 120 114 106 99 95 94 93 92 87 76 69 68 66 62 59 58 57 56 54 53 53 53 53 53 52 50 47 47 45 44 44 45 47 47 48 53 62 68 71 72 73 72 68 69 76 86 99 113 121 126 134 141 142 142 145 151 156 156 154
91 84 74 118 163 325 330 308 286 358 21 147 124 109 108 107 105 104 101 104 113 117 113 112 113 112 113 114 112 107 103 98 91 86 80 73 64 56 52 55 59 55 49 47 46 46 47 49 52 56 56 55 53 49 46 44 43 43 43 44 45 46 46 46 49 57 69 76 80 84 87 87 83 83 90 98 103 108 116 125 129 130 132 139 146 146 146
101 96 76 119 98 19 21 86 111 73 102 131 129 118 112 111 110 109 107 108 114 117 117 117 117 118 119 116 110 101 92 86 78 68 60 53 51 53 57 61 62 59 52 45 41 39 39 40 44 50 54 51 45 42 41 39 39 42 43 44 46 46 46 45 46 47 54 66 80 90 95 99 103 102 100 100 99 99 103 109 113 114 113 116 124 129 133
84 95 99 96 82 66 72 92 102 105 116 128 127 121 119 119 119 117 117 119 122 122 122 122 123 124 122 117 109 93 78 71 69 66 65 63 63 64 65 66 64 61 56 49 43 39 38 38 39 42 47 44 36 32 35 38 41 44 43 43 46 47 46 45 44 45 47 52 62 78 93 103 108 109 109 111 110 105 102 99 98 97 94 93 98 109 118
91 83 90 100 94 86 86 92 99 106 112 117 119 119 121 124 127 129 129 129 129 127 125 122 119 118 116 110 103 92 84 82 82 81 78 73 69 65 62 61 61 60 56 49 43 41 39 35 33 35 40 39 30 24 27 36 44 48 47 45 46 48 48 47 44 42 43 46 49 54 62 78 103 115 118 121 123 121 115 107 100 95 91 89 91 101 109
105 83 96 108 105 103 103 102 103 106 108 113 119 123 127 130 132 133 132 130 129 126 120 114 112 111 110 107 103 99 95 92 89 87 83 76 67 59 52 48 47 45 42 40 38 37 36 31 25 26 33 33 24 15 15 27 42 50 50 47 48 49 51 51 49 45 42 42 42 44 48 53 67 89 102 110 122 129 127 117 108 99 90 85 85 91 96
96 106 120 115 109 113 117 116 118 119 120 123 126 125 128 131 131 131 129 127 126 123 119 115 113 112 111 110 107 104 100 96 89 83 79 72 65 58 50 43 38 33 32 33 30 29 29 27 21 19 22 20 14 8 5 8 24 44 50 47 46 48 51 53 54 51 45 42 41 42 44 46 50 59 67 73 80 86 86 83 79 73 68 66 65 68 75
102 111 125 118 104 103 118 125 126 126 124 126 127 127 126 126 127 126 123 118 117 118 119 118 115 111 109 107 103 99 96 89 77 65 62 64 63 59 55 50 46 43 40 33 22 17 18 21 19 18 17 13 10 7 2 358 5 22 35 39 39 42 47 50 53 54 49 43 43 45 47 47 50 54 57 57 57 61 64 66 66 66 68 73 71 65 65
114 136 150 143 123 122 148 141 132 127 124 125 128 129 128 126 124 122 119 118 119 118 118 118 114 107 103 101 97 93 86 75 63 53 51 57 60 59 60 58 50 39 30 21 12 7 8 9 9 10 11 10 10 10 6 359 360 10 20 23 23 29 40 46 48 52 52 46 46 52 53 51 52 59 67 70 72 76 81 84 86 89 92 93 91 82 72
146 159 163 153 133 141 155 147 136 132 129 127 128 129 130 130 129 125 121 119 120 121 121 119 114 110 105 99 92 86 77 72 70 61 56 66 77 72 64 49 25 8 359 356 356 358 359 358 356 354 356 360 5 11 13 7 2 11 32 33 23 30 42 45 43 47 50 49 48 54 57 53 53 60 69 77 82 84 87 90 92 98 112 134 116 100 106
141 155 158 144 133 142 150 145 138 135 131 129 129 130 130 130 129 127 124 119 118 122 123 119 117 118 112 95 82 80 79 79 84 80 76 90 95 78 47 16 4 359 352 345 346 352 354 354 354 350 345 352 2 8 14 12 5 12 41 44 39 47 56 54 50 49 49 48 49 55 56 48 48 54 62 72 80 82 81 80 81 87 99 115 125 131 139
139 148 146 136 136 140 141 140 140 138 133 131 133 134 136 136 136 136 133 128 125 127 127 125 125 128 121 101 87 88 86 83 95 115 120 111 92 45 6 357 360 359 351 337 328 332 339 347 357 2 353 345 1 6 9 9 4 3 21 33 38 48 54 53 51 49 45 42 45 57 66 56 45 43 47 62 78 84 84 81 78 80 90 103 116 126 133
132 140 140 139 143 147 148 151 156 155 149 143 140 140 142 142 142 141 135 131 130 129 129 129 124 118 116 103 82 81 83 76 108 147 150 125 20 355 351 349 349 351 349 336 320 325 337 343 353 9 10 331 342 353 357 3 4 360 353 3 25 37 36 31 29 32 35 34 32 37 55 62 60 61 65 71 78 87 95 92 82 77 79 84 95 109 120
125 133 136 139 149 157 159 161 163 161 160 155 145 139 134 131 135 138 134 134 139 138 141 145 133 115 108 98 84 95 101 54 189 181 173 13 355 354 353 350 349 352 355 355 358 13 16 6 358 358 351 327 325 331 337 352 2 3 355 346 350 11 20 18 14 16 24 29 25 21 34 50 58 70 91 101 100 100 100 89 77 72 74 73 72 73 80
129 132 131 131 138 147 150 149 149 155 164 163 152 144 142 147 156 160 159 160 161 160 166 174 166 139 121 115 136 184 218 223 187 181 178 360 1 2 1 3 5 3 6 21 33 30 24 19 13 5 355 342 327 314 313 333 348 357 0 351 335 335 355 5 11 22 36 41 36 24 21 34 46 65 88 104 127 146 116 83 71 70 72 67 56 47 42
140 137 131 127 130 138 142 144 147 154 164 167 163 162 171 180 185 186 185 185 185 184 187 189 182 166 156 150 159 181 191 178 171 158 7 2 4 6 9 14 12 7 9 32 38 21 14 14 11 6 1 354 340 314 291 304 322 340 356 354 337 325 338 355 24 66 70 62 46 19 7 15 22 39 76 102 124 146 136 91 64 59 60 50 33 24 23
141 136 134 133 134 141 148 151 152 155 160 164 163 161 165 169 164 149 138 137 148 170 183 186 185 182 181 179 172 169 176 183 202 352 358 359 359 1 11 17 12 6 11 35 42 22 13 9 5 1 359 356 349 331 293 276 289 324 351 352 342 330 339 8 106 103 74 61 44 2 349 0 7 17 46 79 94 105 102 68 38 33 39 30 11 2 5
143 144 146 145 144 146 151 156 157 151 147 151 151 147 146 147 140 128 121 121 121 113 109 139 170 179 182 191 274 310 289 297 329 343 347 347 346 355 13 16 11 8 15 31 31 14 6 5 4 1 356 350 345 336 300 261 249 289 349 350 346 339 335 345 138 121 76 63 53 10 356 358 357 354 356 4 8 5 3 360 347 331 333 346 346 347 352
151 152 155 158 158 155 156 163 159 144 138 144 147 144 146 152 154 151 147 148 144 123 96 98 129 148 161 247 264 269 297 319 329 332 333 332 334 350 9 9 8 9 7 360 3 6 1 355 355 356 352 344 333 321 289 252 242 266 344 346 349 350 326 229 160 155 145 97 30 341 338 340 339 337 337 338 338 336 335 334 325 308 300 311 323 335 343
157 158 162 169 170 167 166 167 159 148 148 158 156 150 154 168 167 157 149 163 180 164 124 82 61 56 39 277 272 301 322 329 327 323 325 327 331 346 356 356 1 5 353 335 346 357 350 342 344 347 348 342 325 302 267 245 250 285 333 329 336 336 239 202 172 183 204 220 240 285 320 339 345 339 333 327 322 318 316 314 308 296 290 301 316 327 330
167 170 175 176 171 163 158 157 156 156 161 163 160 160 167 171 167 152 134 152 177 164 118 65 39 37 22 327 309 316 331 339 334 327 331 336 335 342 346 347 356 0 346 331 342 349 339 337 342 345 349 347 334 306 271 237 225 13 323 315 330 327 248 220 232 237 222 222 230 259 314 340 339 327 320 311 302 298 298 298 291 279 277 295 327 342 332
157 158 161 157 147 139 136 136 140 149 153 147 148 161 166 165 160 144 126 134 151 146 121 107 109 53 359 333 319 321 335 347 349 348 349 343 339 341 341 340 351 359 338 329 341 344 336 338 342 345 350 356 4 32 71 109 113 19 310 307 326 325 276 229 239 275 229 216 232 279 321 335 336 335 328 311 296 289 290 283 266 254 263 320 1 353 341
142 141 140 139 137 134 130 126 128 137 141 137 142 155 161 160 154 140 133 143 157 155 142 136 139 318 320 321 323 330 341 349 351 351 347 339 336 339 336 335 343 341 316 326 343 346 337 341 348 352 353 356 5 32 58 87 13 317 307 309 321 319 271 209 230 321 198 197 238 290 324 339 346 351 344 325 308 290 263 240 220 208 358 18 10 353 343
141 140 138 136 137 135 128 123 126 132 134 133 135 144 154 158 148 130 128 146 163 175 187 99 316 304 305 312 321 333 342 345 340 341 341 334 333 337 336 338 342 326 311 327 350 350 343 353 7 13 7 354 344 338 338 332 325 322 326 333 334 320 157 148 101 72 145 175 267 303 323 337 349 356 351 339 328 293 230 205 180 160 351 4 4 349 335
139 141 141 142 144 141 133 129 132 137 140 138 133 132 141 147 141 133 137 149 163 255 262 256 276 292 299 308 319 326 327 319 322 332 334 324 325 338 343 344 347 339 332 347 6 359 353 4 22 27 22 17 6 348 331 326 326 326 338 358 36 146 147 115 54 72 116 263 283 297 312 326 344 357 356 351 352 330 201 192 187 243 292 323 348 348 344
137 141 144 144 143 140 135 134 139 148 152 145 137 138 145 149 143 139 170 276 297 271 229 232 269 291 299 305 313 316 311 305 316 328 327 311 311 328 332 324 335 354 359 4 10 3 354 355 10 22 24 27 30 22 0 336 325 313 314 349 86 163 181 208 34 60 19 319 284 282 294 310 338 356 358 357 8 125 186 195 203 242 262 266 329 1 18
137 141 144 144 141 140 140 138 139 150 158 156 152 152 156 170 287 321 320 312 295 250 214 247 290 297 300 303 302 300 299 306 315 317 310 301 305 308 298 293 313 349 356 349 352 355 348 340 347 6 9 7 17 22 14 357 336 297 279 298 7 123 176 233 241 303 347 345 316 286 284 292 324 350 356 359 7 131 196 201 205 226 251 243 226 23 23
144 145 146 147 150 154 155 147 138 142 152 171 189 192 211 271 296 309 323 324 294 239 221 245 292 294 297 306 307 301 299 304 308 306 303 304 307 303 292 284 287 309 327 328 335 342 339 331 330 342 345 338 347 359 1 358 352 310 268 264 267 331 338 297 247 258 308 331 338 322 291 286 306 334 352 359 356 336 243 224 221 239 257 233 168 17 2
150 152 150 148 151 156 159 158 155 152 150 153 165 195 253 285 302 321 346 359 336 250 236 262 291 293 294 300 303 301 299 296 295 299 304 306 307 306 297 281 270 276 290 302 318 331 334 327 321 322 327 324 326 334 340 345 347 320 229 221 234 292 307 284 240 235 273 298 310 324 317 293 296 318 350 0 356 344 294 248 233 241 256 231 193 354 353
151 155 156 156 156 151 151 161 168 152 136 145 159 232 281 283 306 343 1 6 352 301 263 276 284 284 287 290 291 296 301 300 296 302 310 313 313 312 299 270 253 262 273 286 310 328 331 323 313 312 317 317 318 322 326 329 330 276 205 206 228 308 316 280 241 238 255 272 283 297 314 301 293 305 336 354 356 354 326 257 231 233 251 245 211 212 325
156 158 162 166 169 170 182 191 183 129 95 154 243 311 288 246 238 271 295 299 291 277 266 271 278 282 287 291 291 294 301 303 300 303 310 316 318 311 293 257 237 245 257 281 314 329 330 325 326 335 339 335 329 325 321 316 305 255 219 220 240 289 312 288 249 241 252 268 281 286 289 291 287 292 310 329 349 7 360 268 229 230 245 248 218 208 234
164 163 166 176 192 217 220 203 185 164 307 269 259 304 303 277 260 265 275 284 289 280 267 261 271 284 290 292 292 293 294 295 296 300 303 306 305 295 273 240 230 241 260 292 319 326 327 339 356 2 1 356 349 340 327 314 297 261 232 230 240 263 291 299 268 247 259 277 290 292 285 272 256 263 279 297 334 10 13 326 233 231 235 236 226 228 243
164 172 185 201 210 207 195 181 179 213 245 247 262 288 295 274 249 257 272 294 312 295 266 258 276 292 295 296 296 291 283 284 292 298 299 296 288 272 244 229 241 257 277 304 320 321 324 341 355 360 1 0 357 349 336 317 293 262 234 229 241 264 298 315 300 273 268 273 281 288 291 291 277 261 269 282 304 347 8 357 251 236 231 223 223 260 273
175 185 191 194 194 187 180 181 191 214 229 229 260 312 340 163 200 262 304 343 1 1 285 290 309 308 299 296 295 293 290 293 295 296 296 292 280 250 219 225 239 249 266 293 304 303 303 315 330 338 344 351 353 352 347 331 297 255 226 222 244 287 310 307 300 297 285 274 273 279 288 294 288 266 259 274 285 300 343 12 332 244 232 222 219 238 254
190 184 180 184 192 192 185 190 209 248 259 185 161 96 96 171 220 286 322 11 58 66 16 321 317 315 309 302 301 303 307 306 301 297 298 295 282 253 225 227 236 244 263 289 299 295 284 283 300 315 324 337 348 351 351 350 329 237 223 232 263 295 300 297 299 302 297 279 273 280 292 299 294 274 255 258 272 278 295 344 2 269 231 218 216 226 234
187 181 176 189 207 216 213 211 220 235 210 168 147 344 291 213 199 187 170 186 214 284 304 310 315 316 309 304 306 309 311 306 301 299 298 290 274 256 239 234 238 248 269 295 306 300 281 274 289 307 315 328 345 350 345 344 11 344 275 269 277 284 287 289 293 292 279 259 259 275 299 305 295 273 249 243 258 264 268 287 326 301 233 224 227 233 232
181 184 189 200 209 218 223 220 215 205 187 190 332 337 314 181 170 161 174 259 295 305 304 301 304 300 298 304 309 306 297 293 295 292 283 276 270 262 253 245 246 258 283 306 317 315 297 285 294 307 309 315 335 348 345 335 337 337 322 298 284 285 289 290 290 284 269 253 253 264 280 284 271 256 251 256 262 256 250 254 267 263 238 241 254 263 261
180 183 187 189 183 170 171 180 192 209 224 285 344 349 351 154 168 184 193 282 328 329 319 300 295 296 304 317 322 312 292 292 302 282 265 270 277 271 251 238 239 254 282 301 313 323 317 294 288 294 296 298 317 337 338 326 319 327 330 321 316 330 337 331 317 305 296 280 269 266 264 258 251 252 258 267 271 259 236 232 238 242 242 250 263 276 279
191 194 196 199 194 185 175 176 203 234 246 293 25 16 257 232 258 241 212 202 285 316 310 302 298 298 304 317 326 326 293 212 30 252 251 260 268 271 266 255 251 259 272 272 268 278 291 286 278 281 286 288 299 316 323 315 306 314 329 336 348 6 15 18 17 13 10 358 326 288 264 252 248 248 253 259 264 261 240 225 228 235 244 250 250 254 264